Showing default

COSMOS 2211, 22182

Orbit data source: Space-Track

COSMOS 2211, 22182 is a payload satellite owned by VKS (CIS) in LEO that was launched on Tue, 20 Oct 1992 UTC via a TSIKLON-3 launch vehicle from the Plesetsk Missile And Space Complex (PKMTR). Payload-class satellites include a variety of spacecraft equipped with specific instruments for various scientific and technological missions. These include communications satellites like Starlink; space stations such as the ISS; scientific satellites like the Hubble; Earth observation satellites from companies like Planet Labs, Umbra, and HawkEye 360; GPS; miniature CubeSats for education and research; and military/defense satellites.

Loading next visibility...
Identifier
22182, 1992-068A
Orbit
LEO
Country
Flag of CISCIS
Related business
Manufacturer
NPO PM
Mission
Defense Communications
Bus & Motor
STRELA-3, Unknown motor
Mass
225 kg wet, 225 kg dry
Launch date (UTC)
1992-10-20 (33 years ago)
Launch vehicle
TSIKLON-3
Launch site
Plesetsk Missile And Space Complex (PKMTR)
Object type
Payload
Rocket body
Debris
Shape & HBR
Cyl, 0.8 m
Radar Cross Section
1.257 m², Large (>1 m²)

Expand to show TLE details & history
Last TLE update: 18 hours ago

TLE from 18 hours ago
0 COSMOS 2211
1 22182U 92068A   25310.88441175  .00000010  00000-0 -10681-5 0  9992
2 22182  82.5916 103.4773 0006835 298.5461 229.5578 12.64059175524650
Epoch: 2025-11-06T21:13Z
TLE epoch observation values (Epoch: 2025-11-06T21:13:33.175Z)
Latitude
11.8134°
Longitude
-82.79794°
Altitude
1,411.671 km
Speed
7.154 km/s
True Right ascension
18h 47m 42s
True Declination
11° 45' 02"
Sunlit
Object was in daylight at epoch
Visualization orbit readout
Latitude
Unknown
Longitude
Unknown
Altitude
Unknown
Speed
Unknown
Apparent Right ascension
Unknown
Apparent Declination
Unknown
Sunlit
N/A
Visualization observer readout
Local Sidereal Time
11:48:33
Azimuth
Unknown
Elevation
Unknown
Doppler factor
Unknown
Orbital elements
Apogee altitude
1,408.871 km
Perigee altitude
1,398.234 km
Semi-major axis
7,781.69 km
Eccentricity
0.00068
Inclination
82.5916°
RAAN
103.4773°
Arg. of periapsis
298.5461°
True anomaly
229.49822°
Mean anomaly
229.5578°
Eccentric anomaly
229.52801°
Mean motion
3.16178 °/min
Orbital period
113.86 mins
BSTAR
-0.0000010681
Loading maneuver chart data...
Computing Atmospheric mass density...
Loading historical data...
Loading historical data...
Loading historical data...
Loading historical data...
Loading historical data...
Loading historical data...
Loading historical data...

Documentation

Showing up to 5 results
|